This is the latest recevied weather packets stored in our database for station/object OE-11213. If no packets are shown the sender has not sent any weather packets the latest 10 day(s).
| Time | Temp. | Humidity | Pressure | Rain* | Wind** | Luminosity | Snow |
|---|---|---|---|---|---|---|---|
| 1788095503 | 28.33° C | 41% | 1013.4 hPa | 0 mm | - | 667 W/m² | - |
| 1788095130 | 27.78° C | 42% | 1013.5 hPa | 0 mm | - | 682 W/m² | - |
| 1788094530 | 28.33° C | 41% | 1013.7 hPa | 0 mm | - | 696 W/m² | - |
| 1788093703 | 27.78° C | 43% | 1013.9 hPa | 0 mm | - | 711 W/m² | - |
| 1788093330 | 27.78° C | 44% | 1013.9 hPa | 0 mm | - | 725 W/m² | - |
| 1788092729 | 27.78° C | 47% | 1014 hPa | 0 mm | - | 732 W/m² | - |
| 1788091902 | 27.22° C | 48% | 1014.1 hPa | 0 mm | - | 740 W/m² | - |
| 1788091530 | 26.67° C | 48% | 1014.2 hPa | 0 mm | - | 747 W/m² | - |
| 1788090930 | 27.22° C | 49% | 1014.2 hPa | 0 mm | - | 754 W/m² | - |
| 1788090102 | 26.67° C | 50% | 1014.5 hPa | 0 mm | - | 754 W/m² | - |
| 1788089729 | 26.67° C | 49% | 1014.7 hPa | 0 mm | - | 761 W/m² | - |
| 1788089130 | 26.11° C | 48% | 1014.8 hPa | 0 mm | - | 761 W/m² | - |
| 1788088303 | 26.11° C | 48% | 1015.1 hPa | 0 mm | - | 761 W/m² | - |
| 1788087930 | 25.56° C | 52% | 1015.1 hPa | 0 mm | - | 761 W/m² | - |
| 1788087330 | 25.56° C | 52% | 1015.4 hPa | 0 mm | - | 761 W/m² | - |
| 1788086503 | 25° C | 50% | 1015.4 hPa | 0 mm | - | 754 W/m² | - |
| 1788086130 | 25° C | 52% | 1015.5 hPa | 0 mm | - | 747 W/m² | - |
| 1788085530 | 25° C | 54% | 1015.7 hPa | 0 mm | - | 740 W/m² | - |
| 1788084703 | 25° C | 56% | 1015.8 hPa | 0 mm | - | 732 W/m² | - |
| 1788084330 | 24.44° C | 58% | 1016.2 hPa | 0 mm | - | 718 W/m² | - |
| 1788083729 | 24.44° C | 55% | 1016.2 hPa | 0 mm | - | 711 W/m² | - |
| 1788082903 | 23.89° C | 59% | 1016.4 hPa | 0 mm | - | 696 W/m² | - |
| 1788082530 | 23.89° C | 59% | 1016.4 hPa | 0 mm | - | 682 W/m² | - |
| 1788081929 | 23.89° C | 62% | 1016.5 hPa | 0 mm | - | 660 W/m² | - |
| 1788081103 | 23.33° C | 62% | 1016.6 hPa | 0 mm | - | 653 W/m² | - |
* Rain latest hour (hover to see other rain measurements)
** Current wind speed in m/s (hover to see current wind gust speed)